Lid_Strength_Index
0 0 0 0 -0 -0 -0 -0 -1 -1 -1 -1 -1 -1 -1 -1 -1 -1 -1 -1 -0 -0 -1 -0 -0 -1 0 -0 -0 0 1 1 3 1 -0 -1 -0 -1 -1 -1 -1 -1 1
0 0 0 -0 -0 0 0 -0 -1 -0 -1 -1 -1 -1 -1 -1 -1 -1 -0 -0 -0 0 -0 -0 0 -0 -0 -0 0 -0 0 0 1 2 -0 0 -0 -1 -1 -1 -1 -1 -1
0 0 0 0 0 0 -0 -0 -0 -0 -0 -0 -0 -0 -0 -0 -0 -1 -1 -0 -0 -0 -0 -0 -0 -0 0 0 0 0 0 0 1 1 2 -0 -0 -0 0 0 -0 0 1
1 1 1 1 0 0 -0 -0 -0 -0 -0 -0 -0 -0 -0 -1 -1 -0 -0 -0 -0 -0 -1 -0 -0 -0 -0 -0 0 0 0 1 1 1 1 1 1 0 0 2 4 3 3
1 1 1 0 0 -0 -0 -0 -0 -0 -0 -0 -0 -0 -0 -0 -0 -0 -0 -0 -0 0 -0 -0 -1 -0 1 0 0 -0 -0 1 1 2 2 1 1 2 2 1 2 3 3
1 1 0 0 0 0 0 -0 -0 -0 -0 -0 0 -0 0 0 2 2 0 -0 -0 0 0 -0 -0 0 0 2 2 2 0 1 1 1 2 1 1 1 1 2 2 3 4
1 1 1 0 1 0 0 0 0 0 -0 0 0 -0 0 -0 3 3 2 -0 -0 0 0 0 0 -0 0 -0 2 3 3 3 2 0 1 1 1 0 0 1 1 2 2
1 1 1 1 1 0 0 0 0 0 0 0 0 0 0 0 5 5 3 -0 -0 -0 -0 -0 -0 -0 -0 -0 -0 0 0 -0 -0 0 0 0 -0 -1 -0 0 1 1 0
1 1 1 1 1 1 1 1 1 1 1 1 0 0 1 0 6 6 3 0 0 0 -0 -0 -0 -0 2 5 0 1 0 0 2 3 4 5 5 4 2 -0 2 2 3
2 1 1 0 1 1 1 1 0 1 1 1 1 0 2 0 5 6 3 0 1 1 0 -0 4 1 6 8 0 1 2 1 0 -0 -0 1 3 1 4 -0 0 2 2
1 1 1 1 1 0 0 0 1 1 1 1 1 1 0 0 1 7 7 0 1 1 1 1 0 7 8 8 8 0 1 1 1 1 1 0 0 -0 -0 -0 -0 1 2
1 1 1 1 0 0 0 0 1 1 1 1 1 1 1 3 6 7 7 7 5 1 1 1 0 8 9 8 6 5 7 6 1 1 1 2 1 1 0 -0 -0 -0 -0
1 1 1 0 0 -1 -0 1 1 1 2 2 2 2 2 3 4 7 7 7 6 2 0 2 7 8 8 6 7 7 7 1 1 2 2 2 1 0 0 1 4 6 8
1 1 1 1 1 -0 -0 -0 1 0 2 2 2 2 2 1 -0 -0 -1 -0 3 2 2 1 2 4 5 4 3 1 1 1 1 2 2 4 5 6 7 7 7 8 9
1 1 1 1 1 1 1 1 1 2 4 2 1 1 2 2 2 7 6 0 0 2 2 0 1 1 2 1 1 1 1 1 2 2 5 7 8 9 9 8 9 9 9
1 2 1 1 1 1 1 1 9 9 10 11 10 5 2 7 10 11 11 10 9 8 1 2 2 2 2 2 3 3 3 4 4 5 6 7 7 7 8 8 7 7 8
1 1 1 2 1 1 1 2 2 5 10 11 11 10 10 9 11 11 11 9 9 7 1 2 2 2 2 2 3 3 5 5 5 5 6 6 7 7 7 8 8 8 9
1 4 1 1 1 1 1 1 1 2 2 2 8 7 10 10 10 10 10 8 1 1 1 1 1 1 1 1 1 2 3 3 3 4 5 5 6 6 7 7 7 8 8
1 1 1 1 1 2 1 1 1 1 2 2 1 5 6 10 9 9 7 1 1 2 0 1 1 0 1 0 1 0 0 1 2 2 3 4 5 5 6 6 7 9 8
1 2 2 1 1 1 1 1 2 2 2 2 2 1 1 2 1 1 1 1 1 0 0 1 1 0 0 0 0 1 1 2 1 1 3 4 4 4 5 5 5 5 5
1 1 2 1 1 1 1 2 2 2 2 2 1 1 7 1 2 2 1 1 1 0 1 1 1 0 -0 0 0 0 2 2 1 1 1 2 2 2 2 3 3 4 5
1 1 1 1 1 1 1 1 2 1 2 1 1 1 7 1 1 1 1 1 0 0 -0 0 -0 -0 -0 -0 -0 0 0 1 0 0 0 1 1 2 3 3 3 3 4
1 1 1 1 1 2 1 1 1 1 1 1 1 1 1 1 1 0 0 0 0 -0 -0 -0 -0 -0 -1 -1 -1 -1 -0 -0 -0 -1 -0 1 2 2 3 4 3 3 3
1 1 1 1 1 1 1 1 1 3 1 1 1 1 0 0 0 0 -0 -0 -0 -0 -1 -0 -0 0 -1 -1 -1 -1 -1 -1 -1 -1 -1 0 2 3 2 3 3 3 2
1 1 1 1 1 1 1 1 1 1 1 1 1 1 0 0 -0 -0 -0 -0 -0 -0 -0 -1 -1 -1 -1 -1 -1 -1 3 6 -0 4 -1 -1 -0 0 1 2 2 2 1
0 1 1 1 1 1 1 1 1 1 1 1 0 0 0 0 -0 -0 -1 -0 -0 -0 -1 -1 -1 -1 -1 -1 -1 4 13 10 2 9 -1 -1 -0 0 0 1 1 1 1